Weather in Oıtal

Kazakhstan     42°54′22″N   73°16′08″E
В апреле 2022 года жителям России запретили посещать сайт meteo.paraplan.net по решению Генеральной прокуратуры. Аудитория сайта уменьшилась в 10 раз. Владельцы сайта не видят смысла в поддержке погодного сервера в таких условиях. Сайт будет закрыт в октябре.
temp.,
°C
wind,
m/s
gust,
m/s
humid.,
%
clouds,
%
prec.,
mm/h
press.,
hPa
HPBL,
m
4 october, tue
tue400:00+14se355989 0.8 101890
03:00+13wnw235045 0.0 101834
06:00+11w22505 0.0 102022
09:00+13wnw234552 0.0 1021187
12:00+18nnw22367 0.0 1020887
15:00+21nnw322724 0.0 10192074
18:00+20n342484 0.0 1021303
21:00+15ene343346 0.1 102375
5 october, wed
wed500:00+13w11435 0.1 102311
03:00+12w223626 0.0 102312
06:00+11w224132 0.0 102520
09:00+13nw11355 0.0 1026187
12:00+17ne23304 0.0 10241000
15:00+21ene35233 0.0 10231970
18:00+20e24234 0.0 1023196
21:00+14ene47270 0.0 1026172
6 october, thu
thu600:00+11ne23300 0.0 102548
03:00+10nne11340 0.0 102520
06:00+8nw01380 0.0 102512
09:00+12nnw11310 0.0 1025124
12:00+17ne22220 0.0 1024801
15:00+20ene12200 0.0 10221165
18:00+20ssw22220 0.0 102126
21:00+16ne11290 0.0 102312
7 october, fri
fri700:00+13nne22340 0.0 102218
03:00+12ene11370 0.0 102111
06:00+11e12390 0.0 102210
09:00+14ne11310 0.0 1021107
12:00+20ne22210 0.0 1020605
15:00+23nne22170 0.0 10181011
18:00+22s01202 0.0 101811
21:00+18ssw222521 0.0 101911
8 october, sat
sat800:00+17ssw11280 0.0 101811
03:00+15ssw11290 0.0 101810
06:00+15ssw11270 0.0 101911
09:00+18w11190 0.0 102072
12:00+24nnw33150 0.0 1019859
15:00+26nnw33115 0.0 10181677
18:00+23nnw341330 0.0 101957
21:00+18sw22180 0.0 102114